Flag for United Kingdom Weather past 2 weeks in St. Peter Port, Guernsey, United Kingdom

Now
50 °F

Passing clouds.


Feels Like: 47 °F
Forecast: 49 / 57 °F
Wind: 7 mph from Northeast

Location: Guernsey Airport


UV Index: 0 (Low)

Visibility: N/A


Pressure: 29.98 "Hg

Humidity: 94%

Dew point: 48 °F

Location of St. Peter PortLocation

Historic Weather in St. Peter Port

°F

St. Peter Port temperature yesterday

Maximum temperature yesterday: 52 °F (at 9:20 AM)
Minimum temperature yesterday: 50 °F (at 3:50 AM)
Average temperature yesterday: 51 °F

Past Weeks' High & Low Weather Summary

 TemperatureHumidityPressure
High59 °F (Apr 16, 3:50 PM)100% (Apr 10, 5:20 AM)30.36 "Hg (Apr 10, 5:20 AM)
Low43 °F (Apr 10, 5:20 AM)51% (Apr 16, 12:50 PM)29.53 "Hg (Apr 20, 3:20 PM)
Average50 °F84%30.07 "Hg
* Reported Apr 9 8:20 PM — Apr 24 8:50 PM, St. Peter Port, Weather by CustomWeather, © 2014

Note: Actual official high and low records may vary slightly from our data, if they occured in-between our weather recording intervals... More about our weather records

Advertising

Historic Weather Conditions — Data for Previous 24 hours

 ConditionsComfort  
Time TempWeatherWind HumidityBarometerVisibility
8:50 PM
Apr 24
50 °FPassing clouds.7 mph94%29.98 "HgN/A
8:20 PM50 °FPassing clouds.8 mph94%29.98 "HgN/A
7:50 PM52 °FPassing clouds.7 mph88%29.98 "HgN/A
7:20 PM54 °FPassing clouds.8 mph77%29.98 "HgN/A
6:50 PM54 °FPassing clouds.8 mph77%30.01 "HgN/A
6:20 PM55 °FPassing clouds.8 mph72%30.01 "HgN/A
5:50 PM55 °FPassing clouds.7 mph67%30.01 "HgN/A
5:20 PM55 °FPassing clouds.7 mph77%30.01 "HgN/A
4:50 PM55 °FPassing clouds.8 mph72%30.01 "HgN/A
4:20 PM55 °FPassing clouds.8 mph77%30.04 "HgN/A
3:50 PM55 °FPassing clouds.9 mph82%30.04 "HgN/A
3:20 PM57 °FPassing clouds.8 mph82%30.04 "HgN/A
2:50 PM57 °FPassing clouds.8 mph77%30.04 "HgN/A
2:20 PM57 °FPassing clouds.9 mph77%30.07 "HgN/A
1:50 PM57 °FPassing clouds.9 mph72%30.07 "HgN/A
1:20 PM57 °FPassing clouds.8 mph77%30.07 "HgN/A
12:50 PM55 °FPassing clouds.8 mph82%30.07 "HgN/A
12:20 PM55 °FPassing clouds.10 mph88%30.09 "HgN/A
11:50 AM55 °FSleet. Fog.9 mph82%30.09 "HgN/A
11:20 AM54 °FSleet. Fog.7 mph88%30.09 "HgN/A
10:50 AM54 °FSleet. Fog.8 mph88%30.09 "HgN/A
10:20 AM54 °FSleet. Fog.8 mph88%30.09 "HgN/A
9:50 AM54 °FPassing clouds.7 mph88%30.12 "HgN/A
9:20 AM52 °FPassing clouds.7 mph94%30.12 "HgN/A
8:20 AM50 °FPassing clouds.6 mph100%30.12 "HgN/A
7:50 AM50 °FPassing clouds.2 mph100%30.09 "HgN/A
7:20 AM48 °FPassing clouds.No wind100%30.09 "HgN/A
6:50 AM48 °FPassing clouds.No wind94%30.09 "HgN/A
6:20 AM46 °FPassing clouds.2 mph100%30.09 "HgN/A
5:50 AM48 °FPassing clouds.2 mph94%30.09 "HgN/A
5:20 AM48 °FPassing clouds.2 mph94%30.09 "HgN/A
4:50 AM46 °FPassing clouds.3 mph100%30.09 "HgN/A
4:20 AM46 °FPassing clouds.3 mph100%30.09 "HgN/A
3:50 AM46 °FPassing clouds.2 mph100%30.09 "HgN/A
Weather by CustomWeather, © 2014

See weather overview